sat.trackr.live / text

‹ back to catalog

STARLINK-32353

NORAD 61587 · 2024-187P

PAYLOAD ACTIVE UNKNOWN

§ Identity

Operator
Country
US
Launch date
2024-10-18
Launch site
AFETR
Launch vehicle
Mass (kg)
RCS (m²)

Purposes: comms

External: N2YO · Heavens-Above · Gunter

§ Orbital elements

Epoch: 2026-05-25T03:44:14.169120Z

Period
93.85 min
Inclination
53.1585°
Eccentricity
0.0001099
Mean motion
15.34404504 rev/d
Perigee alt
461.9 km
Apogee alt
463.4 km
Semi-major
6,840.8 km
B*
3.9191e-4
RAAN
68.9477°
Arg perigee
92.0113°
Mean anomaly
268.1015°
Rev number
9,074

§ Raw data

STARLINK-323531 61587U 24187P   26145.15571955  .00012890  00000+0  39191-3 0  99902 61587  53.1585  68.9477 0001099  92.0113 268.1015 15.34404504 90745

JSON: /api/v1/satellites/61587 · /tle

For live sub-satellite position, see the globe view (requires WebGL).

§ Visibility from observer

Set your observer location to see the next 7 days of passes ≥ 10°. The values pass through the URL so the page stays shareable.

No JS? Fill the form by hand. The geolocation button needs JavaScript.